Skip Page Navigation
NASA JPL Caltech
NASA Logo - Jet Propulsion Laboratory + View the NASA Portal
+ Center for Near-Earth Object Studies
JPL Home Earth Solar System Stars & Galaxies Technology
JPL Solar System Dynamics
BODIES ORBITS EPHEMERIDES TOOLS PHYSICAL DATA DISCOVERY FAQ SITE MAP
JPL Small-Body Database Browser
Search: [ help ]  
15609 Kosmaczewski (2000 GP124)
Classification: Mars-crossing Asteroid          SPK-ID: 2015609
Ephemeris | Orbit Diagram | Orbital Elements | Mission Design | Physical Parameters | Discovery Circumstances | Close-Approach Data ]

[ hide orbit diagram ]

For accurate long-term ephemerides, please instead use our Horizons system.This orbit viewer was implemented using two-body methods, and hence should not be used for determining accurate long-term trajectories (over several years or decades) or planetary encounter circumstances.


[ revert to old Java-based viewer ]

Orbital Elements at Epoch 2459000.5 (2020-May-31.0) TDB
Reference: JPL 26 (heliocentric ecliptic J2000)
 Element Value Uncertainty (1-sigma)   Units 
e .2898067785143211 3.8258e-08  
a 2.270261734026167 8.6779e-09 au
q 1.612324494503707 8.7166e-08 au
i 6.731118552144409 4.7439e-06 deg
node 138.8062549494543 2.8329e-05 deg
peri 163.5299299588629 2.9348e-05 deg
M 264.5169446426407 7.8186e-06 deg
tp 2459331.887503406275
(2021-Apr-27.38750341)
2.8184e-05 TDB
period 1249.431124504376
3.42
7.1638e-06
1.961e-08
d
yr
n .2881311285908654 1.652e-09 deg/d
Q 2.928198973548627 1.1193e-08 au
  Orbit Determination Parameters
   # obs. used (total)      1104  
   data-arc span      10890 days (29.82 yr)  
   first obs. used      1990-07-27  
   last obs. used      2020-05-20  
   planetary ephem.      DE431  
   SB-pert. ephem.      SB431-N16  
   condition code      0  
   norm. resid. RMS      .5555  
   source      ORB  
   producer      Otto Matic  
   solution date      2020-Nov-13 02:32:31  

Additional Information
 Earth MOID = .598479 au 
 Jupiter MOID = 2.33454 au 
 T_jup = 3.548 
[ show covariance matrix ]

Ephemeris | Orbit Diagram | Orbital Elements | Mission Design | Physical Parameters | Discovery Circumstances | Close-Approach Data ]

Physical Parameter Table
Parameter Symbol Value Units Sigma Reference Notes
absolute magnitude H 15.4   n/a MPO412299  
diameter diameter 4.742 km 0.927 urn:nasa:pds:neowise_diameters_albedos::2.0[mainbelt] (http://adsabs.harvard.edu/abs/2016AJ....152...63N)  
rotation period rot_per 5.22 h n/a LCDB (Rev. 2019-August); Warner et al., 2009 Result based on less than full coverage, so that the period may be wrong by 30 percent or so.
Published Reference List:
[Clark, M. (2015) Minor Planet Bull. 42, 15-20.]
geometric albedo albedo 0.069   0.031 urn:nasa:pds:neowise_diameters_albedos::2.0[mainbelt] (http://adsabs.harvard.edu/abs/2015ApJ...814..117N)  

15609 Kosmaczewski           Discovered 2000 Apr. 7 by the Lincoln Laboratory Near-Earth Asteroid Research Team at Socorro.
Named in honor of Sara G. Kosmaczewski for achievement as a finalist in the 2001 Discovery Young Scientist Challenge (DYSC), a middle school science competition. Sara is a student at the St. Rita School, Hamden, Connecticut.
NOTE: some special characters may not display properly (any characters within {} are an attempt to place the proper accent above a character)
Reference: 20011002/MPCPages.arcLast Updated: 2009-05-11

[ show close-approach data ]
Alternate Designations
 2000 GP124 = 1990 ON3 = 1997 RO10 
Ephemeris | Orbit Diagram | Orbital Elements | Mission Design | Physical Parameters | Discovery Circumstances | Close-Approach Data ]
ABOUT SSD CREDITS/AWARDS PRIVACY/COPYRIGHT GLOSSARY LINKS
FirstGov 2020-Nov-24 22:08 UT
(server date/time)  
NASA Home Page
Site Manager:   Ryan S. Park
Webmaster  Alan B. Chamberlin